Weather History for Sheboygan, WI

Change the Weather History Date:

Monday, May 20, 2013

  Actual Average Record
Temperature  
Mean Temperature 70 °F -  
Max Temperature 84 °F 67 °F 87 °F (1972)
Min Temperature 59 °F 46 °F 30 °F (2002)
Cooling Degree Days 6    
Growing Degree Days 20 (Base 50)    
Moisture  
Dew Point 59 °F    
Average Humidity 74    
Maximum Humidity 94    
Minimum Humidity 39    
Precipitation  
Precipitation 0.00 in - - ()
Sea Level Pressure  
Sea Level Pressure 29.72 in    
Wind  
Wind Speed 6 mph (South)    
Max Wind Speed 25 mph    
Max Gust Speed 31 mph    
Visibility 8 miles    
Events Thunderstorm    
Averages and records for this station are not official NWS values.
T = Trace of Precipitation, MM = Missing Value Source: NWS Daily Summary

Daily Weather History Graph

Daily Weather History Graph

Search for Another Location

Airport:

Trip Planner

Search our weather history database for the weather conditions in past years. The results will help you decide how hot, cold, wet, or windy it might be!

Date:

Astronomy

May. 20, 2013 Rise Set
Actual Time 5:20 AM CDT 8:15 PM CDT
Civil Twilight 4:46 AM CDT 8:49 PM CDT
Nautical Twilight 4:03 AM CDT 9:32 PM CDT
Astronomical Twilight 3:13 AM CDT 10:23 PM CDT
Moon 3:14 PM CDT (5/20) 2:25 AM CDT (5/20)
Length of Visible Light 16h 02m
Length of Day
14h 54m
Waxing Gibbous, 75% of the Moon is Illuminated
May 20
Waxing Gibbous
May 24
Full
May 31
Last Quarter
Jun 8
New
Jun 16
First Quarter

Hourly Weather History & Observations

Time (CDT) Temp. Heat Index Dew Point Humidity Pressure Visibility Wind Dir Wind Speed Gust Speed Precip Events Conditions
12:53 AM 59.0 °F - 55.9 °F 90% 29.77 in 6.0 mi Calm Calm - N/A   Clear
1:53 AM 61.0 °F - 55.9 °F 83% 29.76 in 7.0 mi South 4.6 mph - N/A   Clear
3:05 AM 62.6 °F - 59.0 °F 88% 29.77 in 8.0 mi Calm Calm - N/A Thunderstorm Partly Cloudy
3:20 AM 62.6 °F - 59.0 °F 88% 29.79 in 8.0 mi West 11.5 mph 23.0 mph N/A   Partly Cloudy
3:53 AM 62.1 °F - 60.1 °F 93% 29.73 in 7.0 mi Calm Calm - N/A   Clear
4:53 AM 60.1 °F - 57.9 °F 93% 29.74 in 5.0 mi ENE 6.9 mph - N/A   Mostly Cloudy
5:53 AM 63.0 °F - 60.1 °F 90% 29.73 in 4.0 mi ESE 5.8 mph - N/A   Mostly Cloudy
6:19 AM 60.8 °F - 59.0 °F 94% 29.74 in 2.5 mi SE 6.9 mph - N/A   Clear
6:53 AM 59.0 °F - 57.0 °F 93% 29.72 in 3.0 mi SE 5.8 mph - N/A   Clear
7:53 AM 61.0 °F - 59.0 °F 93% 29.75 in 3.0 mi Calm Calm - N/A   Scattered Clouds
8:53 AM 69.1 °F - 64.0 °F 84% 29.72 in 5.0 mi SSE 5.8 mph - N/A   Haze
9:53 AM 71.1 °F - 64.0 °F 78% 29.73 in 7.0 mi South 8.1 mph - N/A   Mostly Cloudy
10:53 AM 72.0 °F - 64.9 °F 78% 29.74 in 7.0 mi South 10.4 mph - N/A   Clear
11:53 AM 78.1 °F - 66.0 °F 66% 29.73 in 10.0 mi South 13.8 mph - N/A   Clear
1:53 PM 82.0 °F 82.7 °F 61.0 °F 49% 29.70 in 10.0 mi South 17.3 mph 20.7 mph N/A   Clear
2:53 PM 81.0 °F 81.7 °F 61.0 °F 50% 29.68 in 10.0 mi South 11.5 mph - N/A   Clear
3:53 PM 82.9 °F 82.8 °F 59.0 °F 44% 29.68 in 10.0 mi SSW 19.6 mph 28.8 mph N/A   Clear
4:53 PM 82.9 °F 82.4 °F 57.0 °F 41% 29.68 in 10.0 mi SSW 25.3 mph 31.1 mph N/A   Clear
5:53 PM 82.0 °F 81.4 °F 55.0 °F 39% 29.68 in 10.0 mi SW 17.3 mph 26.5 mph N/A   Clear
6:53 PM 81.0 °F 80.8 °F 55.9 °F 42% 29.67 in 10.0 mi SW 12.7 mph 18.4 mph N/A   Clear
7:53 PM 77.0 °F - 59.0 °F 54% 29.68 in 10.0 mi Variable 3.5 mph - N/A   Clear
8:53 PM 66.9 °F - 57.0 °F 70% 29.69 in 10.0 mi Calm Calm - N/A   Clear
9:53 PM 64.0 °F - 57.0 °F 78% 29.70 in 10.0 mi South 3.5 mph - N/A   Clear
10:53 PM 63.0 °F - 57.9 °F 84% 29.69 in 10.0 mi Calm Calm - N/A   Scattered Clouds
11:53 PM 63.0 °F - 59.0 °F 87% 29.66 in 10.0 mi NE 5.8 mph - N/A   Partly Cloudy